Weather Roundup
Issued by NWS Chicago, IL

Home | Current Version | Previous Version | Text Only | Print | Product List | Glossary On
Versions: 1 2 3 4 5 6 7 8 9 10 11 12 13 14 15 16 17 18 19 20 21 22 23 24 25 26 27 28 29 30 31 32 33 34 35 36 37 38 39 40 41 42 43 44 45 46 47 48 49 50
000
NZUS59 KLOT 231410
HRRLOT

CHICAGO AREA WEATHER ROUNDUP
NATIONAL WEATHER SERVICE CHICAGO/ROMEOVILLE IL
900 AM CDT WED JUL 23 2014

NOTE: "FAIR" INDICATES FEW OR NO CLOUDS BELOW 12,000 FEET WITH NO
SIGNIFICANT WEATHER AND/OR OBSTRUCTIONS TO VISIBILITY.

* THESE STATIONS ARE NOT UNDER NWS QUALITY CONTROL. THEY ALSO MAY NOT
  REPORT WEATHER SUCH AS PRECIPITATION OR FOG.

ILZ005-006-012>014-019>023-231500-
NORTHEAST ILLINOIS

CITY           SKY/WX    TMP DP  RH WIND       PRES   REMARKS
OHARE          MOSUNNY   68  54  60 N20       30.14R
MIDWAY         MOSUNNY   69  58  67 NE18G28   30.13R
AURORA         SUNNY     69  55  60 NE16G23   30.15R
LANSING*       MOSUNNY   65  56  72 NE17G25   30.13S
JOLIET*        SUNNY     68  55  61 NE15G22   30.14R
WAUKEGAN       SUNNY     65  55  70 N10G21    30.16R
DUPAGE AIRPORT SUNNY     69  56  62 N16       30.14R
WHEELING       SUNNY     67  56  67 N20G28    30.16R
KANKAKEE*      MOSUNNY   69  60  73 N13G21    30.11S
MORRIS*        SUNNY     70  57  63 NE7       30.13R
LEWIS AIRPORT* SUNNY     68  56  66 NE17G23   30.13R
NORTHERLY IS     N/A     64  58  80 N12         N/A
$$

WIZ051-052-058>065-066-070>072-231500-
SOUTHEAST WISCONSIN

CITY           SKY/WX    TMP DP  RH WIND       PRES   REMARKS
MILWAUKEE      MOSUNNY   65  55  70 N15       30.17R
KENOSHA*       SUNNY     67  56  67 N14G21    30.17R
RACINE*        SUNNY     65  56  72 N17G24    30.19R
BURLINGTON     SUNNY     65  55  71 NE9       30.18R
WAUKESHA       SUNNY     64  55  72 N12       30.20R
WEST BEND      MOSUNNY   64  54  68 N12       30.19R
$$

INZ001>003-010>013-019-020-231500-
NORTHWEST INDIANA

CITY           SKY/WX    TMP DP  RH WIND       PRES   REMARKS
GARY*          PTSUNNY   68  59  73 N14G28    30.13R
MICHIGAN CITY* NOT AVBL
RENSSELAER*    NOT AVBL
VALPARAISO     CLOUDY    67  60  78 N13G20    30.10S
$$

LMZ740>746-231500-
SOUTHERN LAKE MICHIGAN

STATION/POSITION TIME  SKY/WX   TEMP WIND        PRES    VSBY
                                AIR  DIR/SP/G
                 (UTC)          (F)  (DEG/KT/KT) (MB)    (MI)
HARRISON CRIB    1400            63  360/ 21/ 24   N/A
BURNHAM HARBOR   1400            64   10/ 14/ 16   N/A
CALUMET HARBOR   1400            65  360/ 12/ 18 1019.5S
BURNS HARBOR     NOT AVBL
MICHIGAN CITY    1400            64  350/ 23/ 25   N/A
$$

ABBREVIATIONS USED IN REMARKS
   TC - TEMPERATURE IN CELSIUS
  WCI - WIND CHILL INDEX
   HX - HEAT INDEX
  VSB - VISIBILITY
$$


USA.gov is the U.S. government's official web portal to all federal, state and local government web resources and services.